紫金山彗星

C/2026 C1 ( Tsuchinshan )

English version
Home page
Updated on August 9, 2026

---------------------------------------------------------------------

・ プロフィール

発見日 2026年2月11日
発見光度 19.3等
発見者 XuYi of the Purple Mountain Observatory

・ 写真集

・ 軌道要素

Epoch 2026 June 9.0 TT = JDT 2461200.5
T 2028 Nov. 6.96145 TT                                  Pike
q   1.1523798            (2000.0)            P               Q
z  +0.0000661      Peri.  310.71990     +0.64309008     +0.76325520
 +/-0.0000276      Node     3.62032     +0.45063022     -0.31143627
e   0.9999238      Incl.   99.58607     -0.61916682     +0.56608210
From 907 observations 2025 Dec. 22-2026 July 5, mean residual 0".4.

・ 星図

・ 光度変化

        m1 = 3.5 + 5 logΔ + 10.0 log r

---------------------------------------------------------------------

軌道要素はM.P.E.C. 2026-N12に掲載されたものです。
星図はステラナビゲータ Ver.11 (アストロアーツ) で作成したものです。
光度グラフはComet for Windowsで作成したものです。

---------------------------------------------------------------------

Copyright(C) Seiichi Yoshida (comet@aerith.net). All rights reserved.